Flag for Grenada Weather past 2 weeks in Saint George's, Grenada

Now
81 °F

Passing clouds.


Feels Like: 85 °F
Forecast: 75 / 79 °F
Wind: 21 mph from East

Location: Point Salines Airport

Current Time: Apr 18, 2015 at 8:20:39 PM

Latest Report: Apr 18, 2015 at 8:00 PM


Visibility: N/A

Pressure: 29.95 "Hg

Humidity: 79%

Dew point: 73 °F

Location of Saint George'sLocation

Historic Weather in Saint George's — Graph

°F

Saint George's temperature yesterday

Maximum temperature yesterday: 86 °F (at 11:00 AM)
Minimum temperature yesterday: 75 °F (at 2:00 AM)
Average temperature yesterday: 82 °F

Past Weeks' High & Low Weather Summary

 TemperatureHumidityPressure
High86 °F (Apr 7, 2:00 PM)94% (Apr 7, 2:00 AM)30.04 "Hg (Apr 7, 2:00 AM)
Low73 °F (Apr 7, 2:00 AM)66% (Apr 6, 8:00 AM)29.86 "Hg (Apr 4, 3:00 AM)
Average81 °F81%29.95 "Hg
* Reported Apr 3 7:00 PM — Apr 18 7:00 PM, Saint George's, Weather by CustomWeather, © 2015

Note: Actual official high and low records may vary slightly from our data, if they occured in-between our weather recording intervals... More about our weather records

Advertising

Saint George's weather history for previous 24 hours

 ConditionsComfort  
Time TempWeatherWind HumidityBarometerVisibility
7:00 PM
Sat, Apr 18
81 °FPassing clouds.16 mph84%29.92 "HgN/A
6:00 PM81 °FPartly sunny.21 mph84%29.92 "HgN/A
5:00 PM82 °FScattered clouds.18 mph79%29.92 "HgN/A
3:00 PM84 °FPartly sunny.21 mph79%29.92 "Hg5 mi
2:00 PM84 °FPartly sunny.21 mph79%29.95 "HgN/A
1:00 PM84 °FScattered clouds.20 mph79%29.98 "HgN/A
12:00 PM84 °FScattered clouds.20 mph70%29.98 "HgN/A
11:00 AM84 °FPassing clouds.22 mph70%30.01 "HgN/A
10:00 AM84 °FPassing clouds.21 mph74%30.01 "HgN/A
9:00 AM84 °FPassing clouds.20 mph74%30.01 "HgN/A
8:00 AM82 °FPassing clouds.18 mph79%29.98 "HgN/A
7:00 AM81 °FPassing clouds.17 mph79%29.95 "HgN/A
6:00 AM79 °FPassing clouds.16 mph89%29.95 "HgN/A
5:00 AM77 °FPassing clouds.14 mph94%29.92 "HgN/A
3:00 AM81 °FPassing clouds.16 mph79%29.92 "HgN/A
2:00 AM81 °FPassing clouds.17 mph79%29.95 "HgN/A
1:00 AM81 °FPassing clouds.15 mph84%29.95 "HgN/A
12:00 AM81 °FPassing clouds.16 mph79%29.98 "HgN/A
11:00 PM
Fri, Apr 17
81 °FPassing clouds.15 mph79%29.98 "HgN/A
10:00 PM81 °FPassing clouds.23 mph79%29.98 "HgN/A
9:00 PM81 °FPassing clouds.18 mph84%29.95 "HgN/A
8:00 PM81 °FPassing clouds.16 mph84%29.92 "HgN/A
Weather by CustomWeather, © 2015

See weather overviewHow to use our weather pages